[[{"header":{"parameterUnit":"m.s-1","parameterCategory":1,"la1":30.2991,"la2":30.254,"lo1":-89.0895,"lo2":-89.0444,"dy":0.0017,"dx":0.0017,"nx":28,"ny":28,"refTime":"2026-02-04T09:00:00:Z","depth":0,"parameterNumber":2,"parameterNumberName":"U-component_of_WINDS"},"data":[0,0,0,0,0,0,0,0,0,0,0,0,0,0,0,0,0,0,0,0,0,0,0,0,0,0,0,0,0,0,0,0,0,0,0,0,0,0,0,0,0,0,0,0,0,0,0,0,0,0,0,0,0,0,0,0,0,0,1.1634,1.1637,0,1.1854,1.1856,1.1859,1.1956,1.1955,1.1955,1.1955,1.2185,1.2191,1.2197,0,0,0,0,0,0,0,0,0,0,0,0,0,1.1304,1.1309,1.1634,1.1637,1.164,1.1853,1.1856,1.1859,1.1956,1.1955,1.1955,1.1955,1.2183,1.219,1.2198,0,0,0,0,0,0,0,0,0,0,0,0,0,1.1478,1.1311,1.1634,1.1713,1.1723,1.1853,1.1856,1.186,1.1956,1.1955,1.1955,1.1954,1.218,1.2189,1.2199,1.2268,0,0,1.2228,1.2232,0,0,0,0,0,0,0,0,1.1468,1.149,1.1699,1.1708,1.1719,1.1877,1.1824,1.1997,1.1956,1.1867,1.1955,1.1954,1.2083,1.21,1.2143,1.2278,1.2288,1.2229,1.2235,1.2239,1.2242,0,0,0,0,0,0,0,1.1456,1.1481,1.1721,1.1702,1.1714,1.174,1.1764,1.1857,1.1975,1.1875,1.1883,1.1907,1.2088,1.2133,1.2149,1.2292,1.2229,1.2237,1.2243,1.2247,1.2496,1.2497,0,0,0,0,0,0,1.143,1.147,1.1714,1.1728,1.1589,1.1746,1.1773,1.1827,1.1974,1.1996,1.1907,1.1911,1.2117,1.2138,1.2157,1.2249,1.2239,1.2248,1.2254,1.2496,1.2497,1.2498,0,0,0,0,0,0,1.1422,1.1451,1.1705,1.1601,1.1636,1.1752,1.1811,1.1831,1.1876,1.1999,1.2021,1.1931,1.2118,1.2144,1.2239,1.2258,1.2252,1.2261,1.2495,1.2496,1.2497,1.2431,0,0,0,0,0,0,1.1412,1.1447,1.1473,1.1601,1.1641,1.1782,1.1813,1.1836,1.1892,1.1899,1.2027,1.2048,1.2119,1.2225,1.2249,1.2271,1.2269,1.2494,1.2495,1.2497,1.2432,1.243,1.2428,0,0,0,0,0,1.14,1.1447,1.1474,1.1503,1.1675,1.1783,1.1806,1.1885,1.1893,1.1921,1.2,1.2044,1.2252,1.2233,1.2262,1.2287,1.2493,1.2495,1.2497,1.2433,1.243,1.2428,0,0,0,0,0,0,1.132,1.1465,1.1497,1.1586,1.1671,1.1799,1.1836,1.188,1.1966,1.1969,1.2065,1.2094,1.2181,1.2244,1.2221,1.2362,1.2376,1.2384,1.2318,1.2316,1.2314,1.2298,1.2277,0,0,0,0,0,1.1312,1.1385,1.1509,1.1576,1.1617,1.1719,1.1769,1.1822,1.1915,1.1952,1.2038,1.2128,1.2214,1.2269,1.2354,1.2441,1.2472,1.2473,1.2471,1.2468,1.2474,1.2526,1.2529,1.2504,1.2504,1.2504,0,0,1.1298,1.1386,1.1427,1.1562,1.1634,1.171,1.1749,1.1827,1.1884,1.1965,1.206,1.2126,1.2233,1.2325,1.237,1.238,1.2488,1.2471,1.2468,1.2476,1.2528,1.2531,1.2533,1.2505,1.2505,1.2505,0,0,1.131,1.1383,1.1447,1.1519,1.1627,1.1695,1.171,1.1832,1.1878,1.1975,1.2037,1.2108,1.2253,1.2328,1.2384,1.2424,1.2469,1.245,1.2439,1.2489,1.2491,1.2493,1.2509,1.2513,1.2455,1.2455,1.2455,0,1.1279,1.1393,1.1475,1.155,1.1608,1.1683,1.1749,1.1815,1.1947,1.1986,1.1995,1.218,1.2257,1.2368,1.2377,1.242,1.2442,1.2436,1.2484,1.2487,1.249,1.2506,1.2512,1.2452,1.2452,1.2453,1.2453,0,1.135,1.1429,1.1467,1.1591,1.1653,1.1723,1.1818,1.1872,1.192,1.1987,1.2086,1.2181,1.2288,1.2318,1.2367,1.2436,1.2439,1.2465,1.2481,1.2488,1.2505,1.2512,1.2448,1.2449,1.245,1.245,0,0,1.1318,1.1485,1.1498,1.1556,1.1681,1.1744,1.1819,1.1921,1.1966,1.2055,1.212,1.2242,1.2266,1.2331,1.2388,1.2432,1.2459,1.2453,1.2457,1.2451,1.2543,1.2524,1.2529,1.2489,1.249,1.2492,1.2535,0,1.1348,1.1482,1.1558,1.1662,1.1737,1.1809,1.1874,1.1959,1.2024,1.2098,1.2171,1.2255,1.2281,1.232,1.2366,1.2446,1.2479,1.2444,1.2553,1.2556,1.2525,1.2538,1.2517,1.2553,1.2542,1.2543,1.2544,0,1.1401,1.1486,1.1597,1.1714,1.1748,1.1805,1.1906,1.1975,1.2073,1.2118,1.2189,1.2247,1.233,1.2339,1.2456,1.243,1.248,1.2526,1.2529,1.2543,1.2551,1.2553,1.2567,1.2572,1.2555,1.2554,1.2553,0,1.1368,1.151,1.1595,1.1642,1.178,1.1819,1.1879,1.1977,1.2034,1.2122,1.2161,1.2258,1.2312,1.2388,1.2471,1.2469,1.2581,1.2596,1.2622,1.2619,1.2642,1.264,1.2665,1.2672,1.2672,1.2672,1.2672,0,1.1394,1.1459,1.1582,1.1634,1.171,1.1797,1.187,1.1936,1.2023,1.209,1.216,1.2222,1.2328,1.2404,1.247,1.2558,1.2582,1.2621,1.2638,1.2616,1.2611,1.265,1.265,1.2674,1.2673,1.2673,1.2673,0,1.1369,1.1454,1.1552,1.1674,1.1707,1.1757,1.1864,1.1918,1.1987,1.2072,1.2097,1.2205,1.2298,1.2389,1.2514,1.2559,1.2647,1.2669,1.2613,1.2622,1.2643,1.264,1.2695,1.2707,1.2705,1.2705,1.2705,0,1.1381,1.1432,1.156,1.1609,1.1667,1.1746,1.1805,1.1893,1.1952,1.2068,1.2109,1.2207,1.229,1.2436,1.2528,1.2625,1.265,1.2663,1.2666,1.2641,1.2652,1.2648,1.2654,1.2661,1.266,1.266,1.266,0,1.1392,1.1431,1.1511,1.1607,1.1674,1.1753,1.1836,1.1873,1.1978,1.204,1.2135,1.22,1.2328,1.2425,1.2533,1.2597,1.2647,1.2658,1.2669,1.2647,1.2613,1.2633,1.2608,1.2656,1.2657,1.2657,1.2657,1.2657,1.1387,1.1436,1.1534,1.1621,1.1692,1.1767,1.1825,1.19,1.198,1.2089,1.2138,1.2234,1.2334,1.2483,1.2546,1.2625,1.2637,1.2653,1.2657,1.266,1.2656,1.2599,1.2645,1.2645,1.2645,1.2646,1.2646,0,1.1402,1.1469,1.1548,1.166,1.1729,1.1767,1.1861,1.1917,1.2,1.2087,1.2167,1.2278,1.2373,1.2471,1.2572,1.2616,1.2642,1.264,1.2638,1.2653,1.2639,1.2619,1.2618,1.2618,1.2618,1.2618,1.2618,1.2618,1.1419,1.1504,1.1555,1.1677,1.1744,1.1838,1.1888,1.1959,1.2029,1.2148,1.2226,1.2289,1.2382,1.249,1.258,1.2607,1.2641,1.2633,1.2666,1.2652,1.2653,1.2655,1.2637,1.264,1.264,1.2674,1.2674,1.2675]},{"header":{"parameterUnit":"m.s-1","parameterCategory":1,"la1":30.2991,"la2":30.254,"lo1":-89.0895,"lo2":-89.0444,"dy":0.0017,"dx":0.0017,"nx":28,"ny":28,"refTime":"2026-02-04T09:00:00:Z","depth":0,"parameterNumber":3,"parameterNumberName":"V-component_of_WINDS"},"data":[0,0,0,0,0,0,0,0,0,0,0,0,0,0,0,0,0,0,0,0,0,0,0,0,0,0,0,0,0,0,0,0,0,0,0,0,0,0,0,0,0,0,0,0,0,0,0,0,0,0,0,0,0,0,0,0,0,0,1.2584,1.2585,0,1.2669,1.267,1.2671,1.2707,1.2707,1.2707,1.2707,1.2792,1.2794,1.2797,0,0,0,0,0,0,0,0,0,0,0,0,0,1.2449,1.2451,1.2584,1.2585,1.2586,1.2669,1.267,1.2671,1.2707,1.2707,1.2707,1.2706,1.2791,1.2794,1.2797,0,0,0,0,0,0,0,0,0,0,0,0,0,1.2518,1.2452,1.2584,1.2614,1.2617,1.2669,1.267,1.2672,1.2707,1.2707,1.2707,1.2706,1.279,1.2794,1.2798,1.2825,0,0,1.2809,1.281,0,0,0,0,0,0,0,0,1.2514,1.2523,1.2608,1.2612,1.2616,1.2677,1.2654,1.2723,1.2707,1.2673,1.2707,1.2706,1.2754,1.2761,1.2777,1.2829,1.2833,1.2809,1.2811,1.2813,1.2814,0,0,0,0,0,0,0,1.2509,1.252,1.2618,1.2609,1.2614,1.2622,1.2632,1.2667,1.2714,1.2676,1.2679,1.2688,1.2756,1.2774,1.2779,1.2834,1.2809,1.2812,1.2814,1.2816,1.2912,1.2912,0,0,0,0,0,0,1.25,1.2515,1.2615,1.262,1.2564,1.2625,1.2636,1.2658,1.2713,1.2722,1.2689,1.269,1.2767,1.2775,1.2783,1.2818,1.2813,1.2816,1.2818,1.2911,1.2912,1.2912,0,0,0,0,0,0,1.2497,1.2509,1.2611,1.2569,1.2582,1.2627,1.2652,1.266,1.2677,1.2723,1.2731,1.2698,1.2768,1.2777,1.2814,1.2822,1.2818,1.2821,1.2911,1.2911,1.2912,1.289,0,0,0,0,0,0,1.2493,1.2507,1.2519,1.2569,1.2585,1.2642,1.2653,1.2661,1.2684,1.2686,1.2734,1.2742,1.2768,1.2808,1.2818,1.2827,1.2824,1.291,1.2911,1.2912,1.289,1.289,1.2889,0,0,0,0,0,1.2488,1.2509,1.2519,1.2531,1.26,1.2643,1.2652,1.2682,1.2684,1.2696,1.2725,1.274,1.2819,1.2812,1.2823,1.2833,1.291,1.2911,1.2912,1.2891,1.289,1.2889,0,0,0,0,0,0,1.2459,1.2516,1.2528,1.2566,1.2599,1.2649,1.2665,1.268,1.2713,1.2714,1.275,1.276,1.2794,1.2817,1.2808,1.2862,1.2866,1.2869,1.2846,1.2846,1.2845,1.284,1.2827,0,0,0,0,0,1.2456,1.2487,1.2535,1.2564,1.258,1.2619,1.2639,1.2659,1.2695,1.2709,1.2741,1.2774,1.2807,1.2827,1.286,1.2893,1.2904,1.2905,1.2905,1.2904,1.2907,1.2926,1.2927,1.2915,1.2915,1.2915,0,0,1.2453,1.2488,1.2505,1.2559,1.2587,1.2617,1.2631,1.2662,1.2685,1.2714,1.2751,1.2775,1.2814,1.285,1.2867,1.287,1.2912,1.2905,1.2905,1.2908,1.2927,1.2928,1.2929,1.2915,1.2915,1.2915,0,0,1.2461,1.2491,1.2518,1.2546,1.2588,1.2614,1.262,1.2667,1.2685,1.2723,1.2744,1.2771,1.2826,1.2853,1.2874,1.2891,1.2907,1.2901,1.2899,1.2917,1.2918,1.2919,1.2925,1.2927,1.2903,1.2903,1.2903,0,1.2451,1.2498,1.253,1.256,1.2583,1.261,1.2638,1.2663,1.2713,1.2728,1.2731,1.28,1.2829,1.2871,1.2875,1.2891,1.2899,1.2896,1.2915,1.2917,1.2918,1.2925,1.2927,1.2902,1.2902,1.2902,1.2902,0,1.2483,1.2516,1.2532,1.2581,1.2606,1.2634,1.2669,1.269,1.2708,1.2733,1.277,1.2805,1.2845,1.2856,1.2873,1.29,1.2901,1.2909,1.2913,1.2918,1.2925,1.2927,1.29,1.2901,1.2901,1.2901,0,0,1.2478,1.2543,1.2548,1.2571,1.2619,1.2644,1.2673,1.2712,1.273,1.2763,1.2788,1.2833,1.2841,1.2865,1.2885,1.2901,1.2912,1.2907,1.2909,1.2907,1.2944,1.2938,1.2941,1.2922,1.2923,1.2923,1.2941,0,1.2493,1.2548,1.2577,1.2619,1.2649,1.2674,1.27,1.2731,1.2755,1.2783,1.2809,1.2841,1.2848,1.2863,1.2879,1.2907,1.292,1.2906,1.2946,1.2947,1.2936,1.2944,1.2938,1.2953,1.2943,1.2944,1.2944,0,1.252,1.2553,1.2599,1.2643,1.2656,1.2679,1.2717,1.2743,1.2779,1.2795,1.2821,1.2841,1.2872,1.2873,1.2915,1.2905,1.2923,1.2938,1.294,1.2946,1.2947,1.2951,1.2959,1.2961,1.2949,1.2948,1.2948,0,1.2511,1.2568,1.2602,1.262,1.2673,1.2688,1.271,1.2746,1.2767,1.28,1.2814,1.2849,1.2869,1.2895,1.2923,1.2922,1.2963,1.2967,1.2977,1.2976,1.2986,1.2985,1.2998,1.2995,1.2995,1.2995,1.2995,0,1.2527,1.2554,1.2599,1.2621,1.2651,1.2683,1.2712,1.2736,1.2767,1.2793,1.2816,1.284,1.2875,1.2903,1.2925,1.2956,1.2965,1.2978,1.2984,1.2977,1.2975,1.299,1.299,1.2996,1.2995,1.2995,1.2995,0,1.2524,1.2555,1.2595,1.2641,1.2653,1.2673,1.2712,1.2733,1.2757,1.279,1.2799,1.2837,1.287,1.2901,1.2945,1.296,1.2992,1.2999,1.298,1.2984,1.2993,1.2992,1.3016,1.3021,1.3014,1.3014,1.3014,0,1.2532,1.2554,1.2602,1.2621,1.2643,1.2674,1.2696,1.2727,1.2749,1.279,1.2806,1.2841,1.2872,1.2923,1.2954,1.2988,1.2996,1.3002,1.3002,1.2994,1.2997,1.2996,1.2998,1.3002,1.3002,1.3002,1.3002,0,1.2544,1.2558,1.259,1.2626,1.2652,1.2682,1.2713,1.2727,1.2763,1.2786,1.2821,1.2844,1.2889,1.2924,1.2961,1.2983,1.2999,1.3002,1.3006,1.3,1.2989,1.2995,1.298,1.3002,1.3002,1.3002,1.3002,1.3002,1.2547,1.2568,1.2605,1.2638,1.2665,1.2693,1.2715,1.2741,1.2771,1.2811,1.2827,1.2862,1.2896,1.2948,1.2969,1.2997,1.3,1.3006,1.3008,1.3009,1.3008,1.2983,1.3003,1.3003,1.3003,1.3003,1.3003,0,1.2561,1.2586,1.2617,1.2659,1.2685,1.2698,1.2732,1.2753,1.2784,1.2815,1.2843,1.2883,1.2916,1.2949,1.2984,1.2999,1.3007,1.3007,1.3007,1.3012,1.3003,1.2996,1.3,1.3,1.3,1.3,1.3,1.3,1.2571,1.2606,1.2624,1.2672,1.2696,1.2732,1.275,1.2776,1.28,1.2844,1.2872,1.2893,1.2924,1.2961,1.2992,1.3,1.3012,1.3011,1.3021,1.3012,1.3012,1.3012,1.3006,1.3013,1.3013,1.3028,1.3028,1.3028]}]]